Hourly Data Report for June 14, 2011

HALIFAX STANFIELD INT'L A
NOVA SCOTIA

44°52'48.060" N
63°30'00.050" W
145.40 m
8202250
71395
YHZ

Download Data

Hourly Data (June 2011)
Hourly Data Report for June 14, 2011
TIME
LST
Temp Definition
°C
Dew Point Definition
°C
Rel Hum Definition
%
Precip. Amount Definition
mm

Wind Dir Definition
10's deg

Wind Spd Definition
km/h
Visibility Definition
km
Stn Press Definition
kPa
Hmdx Definition


Wind Chill Definition


Weather Definition


00:00 8.2 8.2 100   3 11 2.0 99.56     Drizzle, Fog
01:00 8.3 8.2 99   2 13 2.0 99.51     Drizzle, Fog
02:00 8.1 8.1 100   4 17 2.0 99.46     Drizzle, Fog
03:00 8.2 8.2 100   4 19 2.0 99.40     Drizzle, Fog
04:00 8.4 8.4 100   3 15 1.6 99.42     Drizzle, Fog
05:00 8.6 8.6 100   4 15 1.6 99.38     Drizzle, Fog
06:00 8.9 8.9 100   3 19 2.0 99.36     Drizzle, Fog
07:00 9.5 9.5 100   4 15 3.2 99.38     Drizzle, Fog
08:00 9.9 9.1 95   3 19 3.2 99.41     Drizzle, Fog
09:00 10.3 9.0 92   5 19 3.2 99.36     Drizzle, Fog
10:00 10.5 10.0 97   4 19 6.4 99.33     Drizzle, Fog
11:00 10.9 9.7 92   5 19 24.1 99.33     Cloudy
12:00 10.8 10.1 95   3 19 9.7 99.32     Drizzle, Fog
13:00 10.9 10.4 97   2 15 19.3 99.25     Cloudy
14:00 11.4 10.6 95   2 13 4.8 99.20     Drizzle, Fog
15:00 11.7 11.2 97   3 22 3.2 99.16     Drizzle, Fog
16:00 11.3 10.8 97   4 11 12.9 99.14     Rain
17:00 10.9 10.6 98   4 15 2.4 99.13     Rain, Fog
18:00 10.6 10.5 99   3 24 4.8 99.08     Rain, Fog
19:00 10.6 10.4 99   2 20 9.7 99.05     Rain, Fog
20:00 10.4 10.2 99   2 17 4.8 99.02     Rain, Fog
21:00 10.2 10.0 99   2 19 4.8 99.02     Rain, Fog
22:00 9.8 9.6 99   2 19 4.8 98.97     Rain, Fog
23:00 9.7 9.4 98   2 17 4.8 98.94     Rain, Fog

Notes on Data Quality.

Legend

  • E = Estimated
  • M = Missing
  • NA = Not Available*
  • [empty] = Indicates an unobserved value
Date modified: